Change the Weather History Date:

Wednesday, March 13, 2013

  Actual Average Record
Temperature  
Mean Temperature 12 °F -  
Max Temperature 15 °F 5 °F 23 °F (1997)
Min Temperature 8 °F 0 °F -27 °F (1999)
Degree Days  
Heating Degree Days 54    
Moisture  
Dew Point 7 °F    
Average Humidity 81    
Maximum Humidity 92    
Minimum Humidity 67    
Precipitation  
Precipitation 0.00 in - - ()
Sea Level Pressure  
Sea Level Pressure 30.39 in    
Wind  
Wind Speed 9 mph (SE)    
Max Wind Speed 16 mph    
Max Gust Speed 21 mph    
Averages and records for this station are not official NWS values.
T = Trace of Precipitation, MM = Missing Value Source: NWS Daily Summary

Daily Weather History Graph

Daily Weather History Graph

Search for Another Location

Airport or City:

Trip Planner

Search our weather history database for the weather conditions in past years. The results will help you decide how hot, cold, wet, or windy it might be!

Date:

Astronomy

Mar. 13, 2013 Rise Set
Actual Time 9:34 AM AKDT 9:00 PM AKDT
Civil Twilight 8:38 AM AKDT 9:56 PM AKDT
Nautical Twilight 7:30 AM AKDT 11:05 PM AKDT
Astronomical Twilight 6:12 AM AKDT 12:24 AM AKDT
Moon 9:04 AM AKDT (3/13) No Moon Set
Length of Visible Light 13h 18m
Length of Day
11h 26m
Waxing Crescent, 4% of the Moon is Illuminated
Mar 13
Waxing Crescent
Mar 19
First Quarter
Mar 27
Full
Apr 2
Last Quarter
Apr 10
New

Hourly Weather History & Observations

Time (AKDT) Temp. Windchill Dew Point Humidity Pressure Visibility Wind Dir Wind Speed Gust Speed Precip Events Conditions
12:16 AM 10.4 °F -6.0 °F 5.0 °F 79% 30.47 in - SE 15.0 mph - N/A   Overcast
12:56 AM 10.4 °F -6.6 °F 5.0 °F 79% 30.46 in - SE 16.1 mph - N/A   Overcast
1:16 AM 8.6 °F -8.3 °F 5.0 °F 85% 30.45 in - SE 15.0 mph 20.7 mph N/A   Overcast
1:56 AM 10.4 °F -4.8 °F 6.8 °F 85% 30.45 in - SE 12.7 mph - N/A   Overcast
2:16 AM 10.4 °F -4.8 °F 6.8 °F 85% 30.45 in - SE 12.7 mph - N/A   Overcast
2:36 AM 10.4 °F -3.3 °F 6.8 °F 85% 30.45 in - SE 10.4 mph - N/A   Overcast
2:56 AM 10.4 °F -4.8 °F 6.8 °F 85% 30.44 in - SE 12.7 mph - N/A   Overcast
3:16 AM 10.4 °F -4.8 °F 6.8 °F 85% 30.45 in - SE 12.7 mph - N/A   Overcast
3:36 AM 10.4 °F -4.1 °F 6.8 °F 85% 30.44 in - SE 11.5 mph - N/A   Overcast
3:56 AM 10.4 °F -1.5 °F 6.8 °F 85% 30.44 in - SSE 8.1 mph - N/A   Overcast
4:16 AM 10.4 °F -2.4 °F 6.8 °F 85% 30.44 in - SSE 9.2 mph - N/A   Overcast
4:36 AM 10.4 °F -2.4 °F 6.8 °F 85% 30.43 in - SE 9.2 mph - N/A   Overcast
4:56 AM 12.2 °F -1.0 °F 6.8 °F 79% 30.43 in - SSE 10.4 mph - N/A   Overcast
5:16 AM 12.2 °F 0.7 °F 6.8 °F 79% 30.42 in - SSE 8.1 mph - N/A   Overcast
5:36 AM 12.2 °F -0.2 °F 6.8 °F 79% 30.42 in - SE 9.2 mph - N/A   Overcast
5:56 AM 12.2 °F 0.7 °F 6.8 °F 79% 30.42 in - SSE 8.1 mph - N/A   Overcast
6:16 AM 12.2 °F 2.9 °F 6.8 °F 79% 30.42 in - SSE 5.8 mph - N/A   Overcast
6:56 AM 12.2 °F 1.7 °F 8.6 °F 85% 30.41 in - SE 6.9 mph - N/A   Overcast
7:16 AM 12.2 °F 0.7 °F 6.8 °F 79% 30.41 in - ESE 8.1 mph - N/A   Overcast
7:36 AM 12.2 °F 0.7 °F 6.8 °F 79% 30.40 in - SE 8.1 mph - N/A   Overcast
7:56 AM 12.2 °F 1.7 °F 6.8 °F 79% 30.40 in - SE 6.9 mph - N/A   Overcast
8:16 AM 12.2 °F 1.7 °F 6.8 °F 79% 30.40 in - SSE 6.9 mph - N/A   Overcast
8:36 AM 12.2 °F 0.7 °F 6.8 °F 79% 30.40 in - SSE 8.1 mph - N/A   Overcast
8:56 AM 12.2 °F 1.7 °F 6.8 °F 79% 30.40 in - SSE 6.9 mph - N/A   Overcast
9:16 AM 12.2 °F 2.9 °F 6.8 °F 79% 30.39 in - SSE 5.8 mph - N/A   Overcast
9:36 AM 12.2 °F 2.9 °F 6.8 °F 79% 30.39 in - South 5.8 mph - N/A   Overcast
9:56 AM 12.2 °F 4.3 °F 6.8 °F 79% 30.39 in - South 4.6 mph - N/A   Overcast
10:16 AM 10.4 °F 4.0 °F 5.0 °F 79% 30.39 in - SSE 3.5 mph - N/A   Partly Cloudy
10:36 AM 10.4 °F 0.8 °F 5.0 °F 79% 30.39 in - SE 5.8 mph - N/A   Partly Cloudy
10:56 AM 10.4 °F 0.8 °F 5.0 °F 79% 30.39 in - SE 5.8 mph - N/A   Clear
11:16 AM 10.4 °F 2.2 °F 5.0 °F 79% 30.39 in - SE 4.6 mph - N/A   Clear
11:36 AM 10.4 °F 2.2 °F 5.0 °F 79% 30.40 in - ESE 4.6 mph - N/A   Clear
12:16 PM 10.4 °F 2.2 °F 6.8 °F 85% 30.40 in - SE 4.6 mph - N/A   Unknown
12:36 PM 10.4 °F 2.2 °F 6.8 °F 85% 30.40 in - SSE 4.6 mph - N/A   Unknown
12:56 PM 12.2 °F 6.1 °F 6.8 °F 79% 30.39 in - SSE 3.5 mph - N/A   Clear
1:16 PM 10.4 °F - 6.8 °F 85% 30.39 in - Calm Calm - N/A   Mostly Cloudy
1:36 PM 12.2 °F - 6.8 °F 79% 30.39 in - Calm Calm - N/A   Overcast
1:56 PM 14.0 °F - 8.6 °F 79% 30.38 in - Calm Calm - N/A   Mostly Cloudy
2:16 PM 12.2 °F 6.1 °F 6.8 °F 79% 30.38 in - North 3.5 mph - N/A   Mostly Cloudy
2:36 PM 14.0 °F - 6.8 °F 73% 30.38 in - Calm Calm - N/A   Partly Cloudy
2:56 PM 14.0 °F 6.5 °F 8.6 °F 79% 30.38 in - ESE 4.6 mph - N/A   Clear
3:16 PM 14.0 °F 6.5 °F 8.6 °F 79% 30.38 in - East 4.6 mph - N/A   Clear
6:16 PM 12.2 °F - 8.6 °F 85% 30.35 in - Calm Calm - N/A   Unknown
6:36 PM 14.0 °F - 8.6 °F 79% 30.35 in - Calm Calm - N/A   Clear
6:56 PM 14.0 °F - 8.6 °F 79% 30.35 in - Calm Calm - N/A   Clear
7:16 PM 15.8 °F - 8.6 °F 73% 30.34 in - Calm Calm - N/A   Clear
7:36 PM 12.2 °F 6.1 °F 6.8 °F 79% 30.34 in - North 3.5 mph - N/A   Clear
7:56 PM 12.2 °F 6.1 °F 3.2 °F 67% 30.33 in - North 3.5 mph - N/A   Clear
8:16 PM 12.2 °F 6.1 °F 6.8 °F 79% 30.33 in - North 3.5 mph - N/A   Clear
8:36 PM 12.2 °F - 6.8 °F 79% 30.33 in - Calm Calm - N/A   Clear
8:56 PM 10.4 °F 2.2 °F 6.8 °F 85% 30.33 in - North 4.6 mph - N/A   Unknown
9:16 PM 8.6 °F - 6.8 °F 92% 30.33 in - Calm Calm - N/A   Unknown
9:36 PM 12.2 °F - 10.4 °F 92% 30.33 in - Calm Calm - N/A   Unknown
9:56 PM 10.4 °F 4.0 °F 8.6 °F 92% 30.33 in - East 3.5 mph - N/A   Unknown
10:16 PM 8.6 °F 0.1 °F 5.0 °F 85% 30.33 in - East 4.6 mph - N/A   Unknown
10:36 PM 8.6 °F 0.1 °F 3.2 °F 79% 30.33 in - East 4.6 mph - N/A   Clear
10:56 PM 8.6 °F 2.0 °F 6.8 °F 92% 30.34 in - East 3.5 mph - N/A   Unknown
11:16 PM 12.2 °F 4.3 °F 10.4 °F 92% 30.34 in - East 4.6 mph - N/A   Unknown
11:56 PM 8.6 °F -4.7 °F 3.2 °F 79% 30.34 in - ESE 9.2 mph - N/A   Clear